Regional Weather Roundup
Issued by NWS

Home | Current Version | Previous Version | Text Only | Print | Product List | Glossary Off
Versions: 1 2 3 4 5 6 7 8 9 10 11 12 13 14 15 16 17 18 19 20 21 22 23 24 25 26 27 28 29 30 31 32 33 34 35 36 37 38 39 40 41 42 43 44 45 46 47 48 49 50

000
ASUS45 KPSR 111710
RWRAZ

ARIZONA HOURLY REGIONAL WEATHER ROUNDUP
NATIONAL WEATHER SERVICE PHOENIX AZ
1000 AM MST THU FEB 11 2016

NOTE: FAIR INDICATES FEW OR NO CLOUDS BELOW 12,000 FEET WITH NO
SIGNIFICANT WEATHER AND/OR OBSTRUCTIONS TO VISIBILITY.

AZZ001>003-036-111800-
NORTHWEST ARIZONA

CITY           SKY/WX    TMP DP  RH WIND       PRES   REMARKS
BULLHEAD CITY  SUNNY     64  28  25 N17G26    30.22S
KINGMAN        SUNNY     56  24  29 NE7       30.29R
$$

AZZ004>008-015-016-018-111800-
NORTH CENTRAL ARIZONA

CITY           SKY/WX    TMP DP  RH WIND       PRES   REMARKS
GRAND CANYON   SUNNY     56  12  17 VRB5      30.42S
WILLIAMS       SUNNY     52  16  24 SE5       30.46S
PRESCOTT       SUNNY     51  20  29 N3        30.36R
FLAGSTAFF      SUNNY     47  13  25 CALM      30.43R
PAYSON         SUNNY     61  14  16 N3        30.35R
PAGE           SUNNY     41  30  65 W3        30.43R
$$

AZZ009>014-017-111800-
NORTHEAST ARIZONA

CITY           SKY/WX    TMP DP  RH WIND       PRES   REMARKS
WINSLOW        SUNNY     39  23  52 SE5       30.43R
SAINT JOHNS    SUNNY     41  17  38 CALM      30.40
WINDOW ROCK    SUNNY     42   0  17 NW3       30.42S
SHOW LOW       SUNNY     45  18  33 CALM      30.42S
$$

AZZ023-111800-
GREATER PHOENIX AREA

CITY           SKY/WX    TMP DP  RH WIND       PRES   REMARKS
PHOENIX        SUNNY     69  30  23 SE9       30.18R
BUCKEYE        SUNNY     61  36  39 CALM      30.21R
GLENDALE       SUNNY     63  34  34 CALM      30.20S
LUKE AFB       SUNNY     64  32  29 E2        30.18R
DEER VALLEY    SUNNY     64  31  28 CALM      30.19R
SCOTTSDALE     SUNNY     66  32  28 CALM      30.20R
MESA-FALCON    SUNNY    N/A N/A N/A N15       30.19R
MESA-GATEWAY   SUNNY     59  34  38 CALM      30.21R
CHANDLER       SUNNY     61  32  33 VRB6      30.20R
$$

AZZ027-028-111800-
SOUTHWEST MARICOPA COUNTY AND PINAL COUNTY

CITY           SKY/WX    TMP DP  RH WIND       PRES   REMARKS
CASA GRANDE    SUNNY     61  27  27 CALM      30.20R
GILA BEND      SUNNY     60  31  33 NE3       30.16S
$$

AZZ503-504-507>509-111800-
SOUTHEAST ARIZONA

CITY           SKY/WX    TMP DP  RH WIND       PRES   REMARKS
TUCSON         SUNNY     55  21  26 SE9       30.24S
DAVIS-MONTHAN  SUNNY     63  24  22 S6        30.22S
RYAN FIELD     SUNNY     61  30  31 E5        30.23S
NOGALES        SUNNY     61  20  20 S3        30.26S
SIERRA VISTA   SUNNY     65  17  15 VRB2      30.31S
DOUGLAS        SUNNY     56  18  22 CALM      30.30S
SAFFORD        SUNNY     57  24  28 CALM      30.28S
$$

AZZ020-021-025-026-031-111800-
SOUTHWEST ARIZONA

CITY           SKY/WX    TMP DP  RH WIND       PRES   REMARKS
YUMA           NOT AVBL
$$

CAZ031-033-041-043-047-048-061-111800-
SOUTHERN CALIFORNIA

CITY           SKY/WX    TMP DP  RH WIND       PRES   REMARKS
DOWNTOWN L.A.  SUNNY     72  30  21 NE3       30.10R
L.A. AIRPORT   SUNNY     71  34  25 CALM      30.11R
SAN DIEGO      SUNNY     68  34  28 CALM      30.11R
BURBANK        SUNNY     67  33  28 CALM      30.13R
ONTARIO        MOSUNNY   66  34  30 CALM      30.14R
RIVERSIDE      SUNNY     67  30  25 NE5       30.13R
PALM SPRINGS   SUNNY     72  26  18 N5        30.17R
EL CENTRO NAS  SUNNY     63  27  25 W6        30.18R
IMPERIAL       SUNNY     65  34  31 W3        30.15R
BLYTHE           N/A    N/A N/A N/A MISG      30.19R
NEEDLES        SUNNY     64  29  26 NE5       30.23R
$$

NVZ020-UTZ003-111800-
SOUTHERN NEVADA-UTAH

CITY           SKY/WX    TMP DP  RH WIND       PRES   REMARKS
LAS VEGAS      MOSUNNY   59  25  27 CALM      30.26R
SALT LAKE CITY FOG       30  26  85 CALM      30.47R VSB 1
$$

NMZ009-TXZ055-111800-
NEW MEXICO-WEST TEXAS

CITY           SKY/WX    TMP DP  RH WIND       PRES   REMARKS
ALBUQUERQUE    SUNNY     48  20  32 N8        30.38R
EL PASO        SUNNY     54  20  26 CALM      30.28S
$$


........................KEY........................
SKY/WX - SKY CONDITION/WEATHER
TMP    - TEMPERATURE IN FAHRENHEIT
DP     - DEW POINT IN FAHRENHEIT
RH     - RELATIVE HUMIDITY IN PERCENT
WIND   - DIRECTION AND SPEED IN MILES PER HOUR (MPH)
VRB    - VARIABLE WIND DIRECTION
PRES   - MEAN SEA LEVEL PRESSURE IN INCHES OF MERCURY
         F - FALLING PRESSURE   R - RISING PRESSURE
         S - STEADY PRESSURE
VSB    - VISIBILITY IN MILES
HX     - HEAT INDEX IN FAHRENHEIT
WCI    - WIND CHILL INDEX IN FAHRENHEIT
TC     - TEMPERATURE IN CELSIUS WHICH IS ALSO KNOWN AS
         TEMPERATURE IN CENTIGRADE
AFB    - AIR FORCE BASE
         LUKE AFB IS LUKE AIR FORCE BASE
         DAVIS-MONTHAN IS DAVIS-MONTHAN AIR FORCE BASE
NAS    - NAVAL AIR STATION
         EL CENTRO NAS IS EL CENTRO NAVAL AIR STATION
N/A    - NOT AVAILABLE




USA.gov is the U.S. government's official web portal to all federal, state and local government web resources and services.